This demonstration page uses our WeatherBlox Daily Observations layout. Learn more.

Left ArrowRight Arrow

31.84235, -102.49876

Hourly Observations for August 23, 2017

Temp ( °F °C ) Dew Point ( °F °C ) Humidity (%) Winds ( mph kmh ) Pressure ( in mb ) Visibility ( mi km ) Precip ( " mm )
12:07 am 00:07 Mostly Cloudy with Light Rain 71 21.7 68 20 90 90 SE 7 11 30.03 1017 7 11 0.00 0.03
12:53 am 00:53 Clear 70 21.1 67 19.4 90 90 E 12 19 30.02 1017 10 16 0.00 0.03
1:53 am 01:53 Clear 70 21.1 67 19.4 90 90 E 10 17 30.00 1016 10 16 0.00 0.00
2:53 am 02:53 Mostly Clear 70 21.1 67 19.4 90 90 SE 5 7 29.98 1015 10 16 0.00 0.00
3:53 am 03:53 Cloudy 70 21.1 68 20 93 93 NE 8 13 29.98 1015 10 16 0.00 0.00
4:53 am 04:53 Clear 70 21.1 68 20 93 93 Calm 29.98 1015 10 16 0.00 0.00
5:53 am 05:53 Clear 69 20.6 67 19.4 93 93 NNE 5 7 29.97 1015 10 16 0.00 0.00
6:53 am 06:53 Mostly Cloudy 68 20 66 18.9 93 93 NNE 9 15 29.98 1015 10 16 0.00 0.00
7:53 am 07:53 Mostly Cloudy 68 20 66 18.9 93 93 NNE 10 17 30.03 1017 10 16 0.00 0.00
8:49 am 08:49 Mostly Cloudy with Light Rain 70 21 66 19 88 88 NE 13 20 30.03 1017 10 16 0.00 0.03
8:53 am 08:53 Mostly Cloudy with Light Rain 69 20.6 67 19.4 93 93 ENE 10 17 30.03 1017 10 16 0.00 0.03
9:14 am 09:14 Cloudy 70 21.1 68 20 93 93 NE 12 19 30.03 1017 10 16 0.00 0.03
9:48 am 09:48 Mostly Cloudy 72 22 66 19 83 83 ENE 10 17 30.03 1017 10 16 0.00 0.03
9:53 am 09:53 Mostly Cloudy 71 21.7 66 18.9 84 84 ENE 12 19 30.05 1018 10 16 0.00 0.03
10:53 am 10:53 Cloudy 74 23.3 66 18.9 76 76 ENE 9 15 30.07 1018 10 16 0.00 0.00
11:53 am 11:53 Mostly Sunny 78 25.6 67 19.4 69 69 E 9 15 30.05 1018 10 16 0.00 0.00
12:53 pm 12:53 Sunny 80 26.7 67 19.4 64 64 VRB 5 7 30.03 1017 10 16 0.00 0.00
1:30 pm 13:30 Mostly Cloudy 81 27.2 66 18.9 61 61 undefined N/A 29.94 1014 10 16 0.00 0.00
1:42 pm 13:42 Partly Cloudy 81 27.2 67 19.4 62 62 undefined N/A 29.94 1014 10 16 0.00 0.00
1:53 pm 13:53 Mostly Cloudy 81 27.2 67 19.4 62 62 undefined N/A 30.00 1016 10 16 0.00 0.00
2:53 pm 14:53 Mostly Cloudy 83 28.3 65 18.3 55 55 SSE 6 9 29.96 1015 10 16 0.00 0.00
3:53 pm 15:53 Mostly Cloudy 86 30 65 18.3 49 49 VRB 6 9 29.92 1013 10 16 0.00 0.00
4:53 pm 16:53 Sunny 86 30 64 17.8 48 48 VRB 3 6 29.91 1013 10 16 0.00 0.00
5:53 pm 17:53 Mostly Sunny 86 30 65 18.3 49 49 Calm 29.90 1013 10 16 0.00 0.00
6:53 pm 18:53 Mostly Sunny 85 29.4 65 18.3 51 51 E 8 13 29.88 1012 10 16 0.00 0.00
7:53 pm 19:53 Sunny 83 28.3 65 18.3 55 55 E 8 13 29.89 1012 10 16 0.00 0.00
8:53 pm 20:53 Clear 79 26.1 66 18.9 65 65 E 7 11 29.91 1013 10 16 0.00 0.00
9:53 pm 21:53 Clear 78 25.6 67 19.4 69 69 E 7 11 29.91 1013 10 16 0.00 0.00
10:53 pm 22:53 Clear 76 24.4 67 19.4 74 74 E 9 15 29.93 1014 10 16 0.00 0.00
11:53 pm 23:53 Clear 76 24.4 68 20 77 77 E 9 15 29.92 1013 10 16 0.00 0.00

Powered by AerisWeather